Theta_e
333 333 333 331 330 327 327 325 324 323 323 322 322 319 317 315 313 312 311 309 307 305 304 303 302 302 301 300 299 299 300 300 300 301 303 307 308 306 311 315 315 317 318 319 320 320 320 321 322 323 322 321 322 322 321 320 319 319 318 317 318 317 316 314 314 314 313 313 313 313 314 314 313 313 313 313 314 313 313 313 314 315 316 316 317
333 334 332 330 330 328 325 324 324 323 323 322 321 319 316 315 314 312 310 308 306 304 303 301 301 301 299 299 298 298 298 298 298 299 300 302 305 305 304 310 313 315 315 316 319 319 320 320 320 321 321 320 320 320 318 318 318 317 317 317 316 315 315 313 313 313 313 312 312 312 312 313 312 312 312 312 313 312 313 314 313 313 313 313 315
333 332 331 330 328 327 327 324 323 323 322 321 320 318 315 315 314 311 310 307 304 303 300 299 299 298 298 298 297 298 297 297 297 298 297 298 300 302 303 303 308 311 313 314 315 316 317 318 318 319 319 319 320 319 317 317 316 315 315 316 315 315 314 313 313 312 311 311 311 311 311 311 311 311 311 311 311 311 311 312 311 312 312 312 312
333 331 330 328 327 325 325 324 323 322 321 320 318 317 316 316 314 311 309 306 302 301 300 298 297 297 298 297 297 297 296 297 297 297 297 297 297 298 300 301 301 304 308 311 313 314 315 315 315 316 316 317 317 317 318 317 317 316 315 315 315 314 313 312 311 310 310 310 310 310 310 310 310 310 310 310 310 310 310 310 310 311 311 311 311
333 331 328 328 326 324 323 323 322 321 319 319 318 317 314 312 310 308 305 304 301 299 299 297 296 296 296 296 296 296 296 296 296 296 296 296 296 296 297 298 299 299 300 304 309 311 313 313 314 314 315 315 316 316 315 316 316 315 315 314 314 314 313 312 310 310 310 310 309 309 309 309 309 309 309 309 309 309 309 309 309 309 310 311 310
332 331 329 326 324 323 321 320 320 321 318 317 314 313 310 308 306 304 302 301 298 297 296 295 295 295 296 296 295 295 295 295 295 295 295 295 295 296 295 295 295 296 297 297 300 305 309 311 312 312 312 312 313 314 314 315 314 314 314 313 313 312 312 310 310 310 310 309 308 308 308 308 308 308 308 308 308 309 309 309 309 309 310 310 310
330 329 328 325 322 320 321 320 319 318 316 316 315 312 309 307 304 302 301 299 298 296 295 295 295 294 295 295 294 295 295 294 295 295 294 294 294 295 295 294 293 294 295 294 295 297 302 306 309 310 310 311 312 312 312 313 313 312 313 312 311 311 310 309 310 309 309 309 308 308 307 307 308 308 309 308 308 309 309 309 309 309 309 310 310
328 328 324 322 318 315 315 315 315 315 315 314 313 311 310 307 305 302 298 298 296 295 295 293 294 294 294 294 294 294 293 294 294 293 294 294 293 293 293 293 293 293 293 292 292 292 295 299 302 305 307 309 310 310 312 312 312 311 311 311 310 310 309 309 309 309 308 308 307 306 306 307 307 307 307 308 308 308 308 308 308 308 308 309 310
325 325 323 317 315 313 312 313 314 314 313 314 314 312 308 306 304 304 301 297 295 293 292 292 293 293 293 294 294 294 293 293 293 293 294 293 293 292 292 292 292 292 292 292 292 291 291 294 295 298 301 305 308 309 310 311 310 310 309 309 309 308 309 308 307 307 307 306 306 306 306 307 307 307 308 307 307 308 307 308 308 307 308 308 308
321 320 319 316 313 310 310 312 313 312 313 312 310 308 306 304 301 299 298 295 293 292 291 292 293 293 292 292 292 292 292 293 293 292 292 292 292 292 291 292 292 292 292 292 292 291 292 291 292 292 294 300 305 307 308 308 308 308 309 309 307 307 307 307 306 306 305 305 306 306 306 306 307 307 307 306 306 306 307 306 307 307 307 307 308
320 316 315 311 310 310 308 310 311 310 310 310 307 305 304 302 298 294 295 295 293 293 292 293 292 292 291 290 291 291 292 292 292 292 292 292 291 291 292 291 291 291 291 291 291 291 291 291 291 291 291 294 298 302 304 305 305 307 308 308 307 307 306 306 306 305 305 305 305 306 305 306 306 306 306 305 305 306 306 306 306 306 307 307 308
315 314 311 310 308 308 307 308 309 308 308 308 305 303 300 297 295 293 292 292 292 292 292 292 291 291 290 290 290 291 291 291 291 291 291 292 291 291 290 291 291 290 291 291 291 290 290 290 290 290 290 291 292 294 297 299 302 304 306 307 307 306 306 305 305 305 305 305 305 305 305 305 305 306 305 305 306 306 306 305 306 306 307 307 307
310 308 309 307 309 308 307 308 308 307 307 307 305 304 301 298 295 293 292 291 291 292 293 292 290 288 289 289 289 290 290 290 289 290 290 291 291 290 290 290 290 290 290 290 290 289 289 289 289 289 289 290 290 291 293 294 297 302 303 304 305 306 306 306 305 305 304 304 305 304 304 304 304 305 305 305 305 305 306 306 306 306 306 306 307
308 307 306 305 303 304 304 305 306 306 308 307 303 300 298 295 293 291 293 292 291 293 293 293 290 287 286 286 287 288 289 288 288 288 290 290 290 290 290 289 289 289 289 289 289 289 288 288 289 288 288 289 289 290 291 291 292 296 300 301 303 305 305 305 305 304 304 304 304 304 303 304 304 304 304 304 304 305 305 305 305 306 306 306 306
308 306 303 302 303 302 303 304 304 305 304 303 300 297 295 294 293 292 291 292 292 294 294 296 291 290 290 287 284 285 286 286 287 287 288 289 289 289 289 288 288 289 289 289 288 288 288 288 288 288 288 288 288 289 289 289 289 291 295 297 299 302 304 304 304 304 304 303 303 303 303 303 303 303 303 303 303 305 305 305 305 305 306 306 306
306 304 303 301 302 302 302 302 304 303 302 301 298 296 295 295 295 295 294 291 291 293 297 296 294 291 287 291 288 289 284 285 285 285 287 287 288 287 288 288 288 289 289 288 287 287 287 287 287 287 287 287 287 288 289 289 288 290 291 293 295 299 301 303 304 303 303 303 302 302 302 302 302 302 303 303 303 304 304 304 305 305 304 305 305
303 301 299 300 301 302 301 301 302 303 303 301 299 296 296 297 297 296 295 294 291 292 293 295 295 297 296 291 289 288 289 286 284 283 286 286 286 287 287 287 288 288 288 287 288 287 287 287 287 287 287 286 286 287 288 289 290 291 291 292 294 296 298 301 302 303 302 302 302 301 302 302 301 302 302 302 303 303 304 304 305 304 304 304 305
301 301 300 300 299 299 300 300 302 302 302 301 300 298 298 299 298 298 297 296 294 293 292 295 295 296 295 293 298 294 288 285 286 282 284 286 286 285 286 287 287 287 288 288 288 287 287 287 287 286 286 286 286 286 287 287 288 289 289 292 295 295 296 297 299 301 301 301 300 301 302 301 301 301 301 301 302 302 303 304 304 303 304 304 304
297 298 299 298 298 298 300 302 302 302 301 301 300 300 300 301 300 299 298 297 297 294 294 293 292 292 293 294 294 294 291 286 285 284 280 283 285 285 285 286 287 287 287 287 287 287 287 287 287 286 286 286 286 286 286 287 287 288 288 291 294 295 295 295 295 297 299 299 299 300 301 301 301 300 300 301 301 301 302 303 303 303 303 303 303
295 296 295 295 296 297 298 299 300 301 301 302 302 303 303 302 301 301 301 299 298 297 296 293 290 292 292 292 292 295 293 294 292 287 287 282 282 284 285 285 286 287 287 287 287 287 287 286 286 286 285 285 285 285 286 286 288 289 287 289 293 295 295 294 294 294 295 297 299 299 300 300 300 300 300 301 301 301 302 302 303 303 303 302 303
293 293 294 294 294 295 296 297 298 298 300 302 303 303 302 301 300 301 300 299 299 301 297 293 293 293 290 291 292 292 292 293 293 292 287 285 283 281 282 284 285 286 286 287 287 287 287 286 286 286 285 285 285 285 285 286 287 289 286 287 291 293 294 294 294 294 294 294 295 296 299 299 298 299 300 301 301 301 302 301 302 302 302 302 301
291 292 292 292 292 293 294 296 297 299 299 302 302 301 301 301 300 301 300 299 300 300 298 295 296 294 293 292 291 290 289 288 289 289 289 290 285 283 284 282 282 284 286 286 286 286 286 286 285 285 285 285 285 285 285 285 286 288 286 285 288 290 292 292 293 293 293 293 293 294 295 296 297 298 299 300 301 300 301 301 301 301 302 301 300
290 290 290 291 291 291 293 296 298 298 299 300 300 300 300 299 299 299 299 299 298 299 298 297 296 294 294 292 291 290 290 288 288 288 288 287 287 285 285 285 285 284 285 286 287 286 286 286 285 285 285 285 285 285 284 284 284 285 284 284 286 288 290 292 292 292 292 292 292 293 293 293 294 295 298 299 300 300 301 301 300 300 301 301 300
289 288 289 289 290 290 293 295 296 297 298 299 299 299 299 298 298 298 298 299 298 297 298 296 295 294 294 293 292 293 293 292 291 290 289 288 289 286 285 286 286 286 287 285 286 286 285 285 285 285 285 284 284 284 284 284 284 283 284 283 284 287 289 291 292 292 291 291 291 292 292 292 293 293 295 297 298 299 299 300 300 300 300 300 300
288 288 288 289 289 290 292 294 295 296 297 297 297 298 297 297 297 297 297 297 296 296 295 295 294 293 292 293 293 292 291 292 292 291 292 291 290 285 286 286 283 284 285 284 284 285 285 285 285 285 284 284 284 284 284 284 284 283 282 283 283 284 286 288 290 291 290 290 291 291 291 291 292 293 294 295 296 296 297 298 299 299 300 300 299
290 289 289 288 289 291 292 294 295 295 295 296 296 296 296 295 295 295 296 295 294 295 295 294 293 294 292 290 290 290 290 291 291 291 290 289 287 286 284 284 284 284 285 283 284 283 285 285 286 285 284 284 284 284 284 283 284 283 282 282 284 283 284 288 290 290 290 290 290 290 289 289 291 292 292 294 294 294 295 297 298 298 298 299 299
291 291 290 289 289 291 292 293 293 293 293 294 294 294 294 294 294 294 293 292 292 292 293 292 292 291 291 290 290 290 289 289 290 290 290 290 289 287 284 281 280 282 282 283 283 283 284 285 285 284 284 284 284 284 284 284 282 282 281 284 285 282 283 286 289 289 288 289 289 289 289 289 290 291 291 291 292 292 294 295 296 297 297 297 296
292 291 290 290 289 290 291 292 291 292 292 292 292 292 292 292 292 291 290 291 291 291 290 290 290 290 290 290 289 288 288 288 289 288 288 289 289 288 287 285 282 280 281 281 282 282 286 283 285 284 284 284 284 284 282 281 283 281 282 284 284 283 282 284 287 287 287 288 288 288 288 289 289 289 289 289 289 290 291 292 292 292 292 292 292
291 290 289 289 289 290 290 290 290 290 290 290 290 291 291 291 290 290 289 289 290 289 289 289 289 289 289 289 288 286 286 286 286 287 287 287 288 288 288 286 286 283 282 281 282 282 285 284 282 284 284 284 283 284 283 283 282 281 284 283 283 283 282 283 285 286 286 287 287 287 288 288 289 288 288 288 289 289 290 290 290 290 291 291 292
290 289 288 288 289 288 290 289 289 289 289 289 289 289 290 289 289 288 288 288 288 287 287 287 287 287 286 286 286 285 285 286 286 286 287 286 286 286 286 286 286 284 284 282 282 285 283 284 284 284 283 283 283 283 283 282 281 281 283 283 283 283 282 282 283 283 284 286 286 286 288 288 288 288 287 287 288 289 289 289 289 290 290 291 291
288 288 287 287 287 289 289 289 288 288 288 288 288 288 289 288 287 286 286 287 286 285 285 284 284 285 284 284 285 285 285 285 285 285 285 285 286 286 285 286 285 286 284 283 281 284 284 283 284 285 283 284 283 282 282 283 281 280 282 283 283 281 281 281 281 282 283 284 284 286 287 288 287 287 286 286 287 288 289 289 288 288 289 289 290
288 288 287 287 287 288 288 288 288 287 287 287 287 287 287 287 286 285 285 285 284 284 283 283 283 283 283 283 283 283 283 283 283 284 284 284 285 285 285 285 285 284 284 283 281 282 285 284 284 284 283 282 282 281 282 282 282 279 282 282 282 281 282 283 282 281 281 282 284 285 286 286 286 286 286 286 286 287 287 288 288 288 287 288 289
287 287 287 287 288 288 287 287 287 286 286 286 286 286 286 286 285 284 284 284 284 283 283 282 282 283 283 282 282 282 282 282 282 282 283 283 283 284 284 284 283 283 283 282 281 281 283 283 283 283 282 281 280 282 280 281 282 282 281 282 282 282 282 282 282 282 281 281 283 283 284 285 285 285 285 285 285 286 287 287 286 286 286 287 287
286 286 287 287 287 287 287 286 286 286 286 285 285 285 285 284 283 284 283 283 283 283 283 282 282 282 281 281 281 280 280 281 281 282 282 282 282 282 282 282 282 282 283 281 281 280 281 283 280 282 281 281 279 282 280 280 280 281 281 281 282 282 281 282 282 282 281 281 282 283 284 284 284 284 284 284 285 286 286 286 286 285 285 286 285
286 286 286 286 287 287 286 286 286 285 285 284 285 285 284 284 283 282 283 283 283 283 282 282 282 281 280 280 279 279 279 279 280 281 281 281 281 282 282 282 281 282 282 281 280 280 280 281 282 280 280 280 279 280 281 280 280 280 280 280 281 281 281 281 281 282 281 281 282 283 283 283 283 282 283 283 284 284 285 285 285 284 284 284 284
284 285 285 286 286 286 285 285 285 284 284 284 284 284 284 283 282 282 282 283 283 283 283 282 281 280 280 279 278 278 278 278 279 279 280 280 281 281 281 281 281 281 281 281 280 280 280 279 280 280 280 280 280 280 280 280 279 279 280 280 281 280 281 281 281 281 281 281 281 282 282 282 281 281 281 282 283 283 284 284 284 284 283 283 283
284 284 284 284 284 285 285 284 284 284 284 283 283 282 283 283 283 282 282 282 283 283 283 281 280 279 279 279 278 277 278 278 279 279 279 279 280 280 280 280 280 281 280 280 280 280 279 278 279 281 280 279 280 280 280 279 279 280 280 280 280 280 280 281 281 281 280 281 281 281 280 280 280 280 280 282 282 283 283 283 283 282 282 282 281
283 283 283 283 284 284 285 284 284 284 283 283 282 283 283 283 283 282 282 282 282 282 281 280 279 279 279 279 278 278 278 278 279 279 279 279 279 279 279 280 280 280 279 279 280 279 279 278 279 278 280 278 278 279 280 279 278 278 279 280 280 280 279 279 279 280 280 280 279 279 279 279 279 279 280 280 281 282 282 282 282 281 281 280 281
283 282 282 282 283 284 284 284 283 283 283 283 283 283 283 282 282 282 282 282 281 280 279 278 278 278 278 278 278 278 278 279 279 279 279 279 279 279 279 279 279 279 279 279 279 278 278 278 278 279 278 279 279 278 280 280 279 279 277 277 278 280 279 278 277 279 280 280 280 279 279 278 278 278 279 279 280 281 281 281 281 280 279 279 281
283 282 282 282 283 283 283 282 282 283 283 283 283 282 282 282 282 281 281 281 280 279 278 278 278 277 278 278 278 279 279 279 279 280 280 279 279 278 279 279 279 278 278 279 278 278 278 278 278 278 279 278 278 279 279 278 277 277 278 277 276 277 278 279 279 278 279 280 279 278 278 278 278 278 279 279 279 279 279 279 279 279 278 279 281
282 282 282 282 282 282 282 282 281 281 281 282 282 281 281 282 282 281 281 281 280 278 277 277 277 277 277 278 278 279 279 280 280 280 280 280 279 279 279 279 278 278 278 278 278 278 278 278 278 279 278 277 278 277 277 277 276 277 279 279 277 277 277 277 278 280 279 278 278 278 277 277 276 277 277 277 277 277 277 277 278 278 278 280 281
282 282 282 282 282 282 281 281 281 280 280 281 282 283 283 282 282 282 282 281 280 278 277 277 277 277 277 278 278 279 280 280 280 280 281 281 281 280 279 279 278 278 277 277 277 278 278 277 277 278 277 276 277 278 277 278 279 279 278 277 276 277 277 277 278 279 280 278 276 276 276 277 276 275 276 275 276 277 277 277 277 277 278 280 281
282 282 282 282 282 282 281 280 280 280 280 280 283 284 284 284 282 282 281 280 279 278 278 277 277 277 277 278 278 279 279 279 279 280 281 281 282 282 281 281 280 279 277 277 277 277 276 276 277 277 276 276 277 278 278 278 278 278 277 277 277 277 275 274 274 278 279 276 275 275 276 278 276 274 275 275 276 276 276 276 277 278 279 280 281
282 282 281 281 281 282 281 281 280 280 279 282 284 285 285 284 283 281 281 280 279 278 278 278 278 278 278 278 278 277 278 278 279 279 280 281 282 282 282 282 281 281 281 279 277 276 276 275 276 276 276 276 277 278 277 278 277 278 278 278 277 276 275 275 275 274 278 278 275 274 274 277 276 274 274 275 275 276 276 276 277 278 279 280 280
282 281 281 281 281 281 280 280 279 279 279 282 284 285 285 284 283 281 281 281 280 279 279 278 278 279 279 278 277 277 277 279 279 279 279 279 280 282 282 282 282 282 282 282 282 279 279 277 276 276 277 277 277 277 278 278 279 277 278 277 277 277 276 275 276 276 278 278 275 274 273 276 276 274 274 275 275 275 275 276 276 277 279 279 279
282 281 281 281 281 281 280 280 280 279 278 282 284 285 285 285 284 282 281 280 280 280 279 279 279 279 279 279 279 278 278 277 278 278 278 278 279 279 280 280 281 282 283 283 282 282 281 278 277 275 277 278 277 278 279 279 278 277 277 276 277 276 275 275 277 277 278 278 274 272 270 274 275 274 273 275 276 275 275 275 276 277 278 278 278
281 281 281 281 281 281 280 280 279 279 279 283 285 286 285 285 285 283 280 280 280 279 279 279 279 279 280 280 279 279 279 278 278 278 278 278 279 279 279 279 280 281 282 282 282 281 281 280 279 278 278 278 278 278 279 279 279 279 279 278 277 277 276 277 276 276 276 277 275 272 268 273 275 273 273 274 275 274 275 275 276 276 277 278 278
282 282 281 281 281 281 280 279 279 278 278 283 285 286 286 286 286 282 280 279 279 279 279 280 280 280 280 280 279 278 278 279 280 281 280 279 279 277 277 277 278 279 280 282 284 284 283 282 281 280 280 279 280 280 280 279 279 280 279 279 278 276 274 272 272 274 273 276 276 272 269 270 274 272 272 274 274 273 274 274 275 276 276 276 277
281 280 280 281 280 280 279 279 278 278 278 282 285 285 286 286 286 283 281 280 280 280 280 280 280 280 279 279 279 278 279 279 280 282 283 282 279 277 277 276 276 277 277 279 281 283 284 284 284 284 284 284 283 283 283 283 281 280 278 276 275 275 272 270 271 272 272 275 274 273 271 269 272 272 271 272 273 272 272 273 274 275 275 275 275
280 280 280 280 279 279 279 279 278 278 278 281 284 285 286 286 286 284 283 282 282 282 282 281 281 280 280 280 280 279 279 280 281 282 282 282 279 278 277 276 276 276 276 277 277 278 281 282 283 284 284 285 285 285 285 284 284 283 279 274 275 275 272 272 270 271 273 274 272 274 270 269 271 271 270 271 271 272 272 273 273 273 274 274 274
280 280 280 279 279 279 279 278 280 278 278 280 284 285 285 286 286 285 285 284 284 284 284 284 284 283 282 282 282 281 280 281 282 282 282 281 280 279 278 277 276 276 277 278 277 276 276 276 277 279 279 281 281 282 282 284 284 283 282 279 276 274 271 272 272 272 270 272 274 274 268 268 270 270 270 267 267 271 272 272 272 272 272 272 272
Wind_Speed
10 9 8 8 8 7 4 6 7 7 7 7 7 8 8 9 9 8 8 8 8 7 7 7 7 7 7 7 7 8 7 7 7 7 7 8 9 13 18 18 19 19 19 18 18 18 19 19 19 19 19 20 21 22 22 23 23 23 23 23 22 22 22 23 23 22 23 22 22 23 23 23 23 25 25 25 25 25 25 25 25 25 25 25 25
10 9 8 9 9 7 6 6 7 7 7 7 6 7 8 8 8 8 8 8 8 7 7 8 7 7 7 7 7 7 7 6 6 6 7 7 8 10 19 19 19 20 19 19 20 19 19 19 19 19 20 20 20 21 21 21 21 22 23 22 21 21 21 22 22 22 23 23 24 23 23 23 24 24 25 25 25 25 25 25 25 25 26 25 24
9 9 9 9 9 8 6 6 6 6 6 6 6 5 7 7 8 8 8 8 8 7 7 8 7 7 7 7 6 6 6 6 6 6 7 6 7 8 11 19 20 20 20 20 20 20 20 18 19 19 19 19 19 19 20 20 21 22 22 21 21 21 21 21 22 22 22 22 23 23 23 24 24 24 24 23 24 24 24 24 24 24 26 26 26
10 10 9 10 10 9 8 5 5 5 6 7 9 7 7 7 8 7 8 8 9 8 7 7 7 7 6 7 6 6 6 6 6 6 6 6 6 6 7 10 19 21 20 19 19 20 20 19 18 17 17 18 18 19 20 20 20 21 21 21 21 21 21 21 22 21 22 22 22 22 22 22 23 23 23 23 23 23 23 23 23 24 25 25 26
9 10 9 10 9 8 6 7 7 7 7 7 8 7 7 7 8 7 7 8 9 8 7 7 8 7 6 6 6 7 5 5 5 6 6 6 6 6 6 7 9 16 20 19 19 20 20 20 19 19 18 18 18 18 20 19 19 20 20 20 21 21 21 21 20 21 21 21 21 21 22 22 22 22 22 23 23 23 23 24 24 24 25 25 26
9 10 9 7 8 8 9 7 7 5 7 9 9 8 7 8 8 8 8 7 9 8 6 7 7 6 6 6 6 6 5 5 5 5 6 7 6 6 6 6 7 7 8 17 19 19 20 20 20 19 18 18 18 18 18 18 19 19 20 20 20 20 20 20 20 21 21 21 21 21 21 21 22 22 22 23 23 24 24 24 25 25 25 25 26
6 9 9 9 7 5 9 10 9 10 7 7 9 7 8 8 7 9 8 7 9 8 6 7 8 8 6 6 6 5 5 6 6 6 7 6 6 6 6 6 6 5 5 6 12 18 19 20 20 19 19 18 18 18 17 18 18 18 19 19 19 19 19 20 20 21 21 21 21 21 20 21 21 22 22 23 24 24 24 25 25 25 25 25 26
9 9 9 9 7 6 3 5 7 8 9 9 9 10 7 6 7 8 10 8 9 8 6 7 8 8 6 5 5 5 5 5 6 6 5 5 6 6 6 6 6 5 5 6 7 11 18 18 19 20 19 19 18 18 18 17 17 17 17 18 18 18 19 19 20 20 20 20 20 20 20 21 22 22 23 24 24 24 25 25 25 26 26 26 26
10 9 8 8 6 7 7 6 5 5 5 10 9 9 9 8 5 3 7 9 10 10 8 7 8 8 6 6 5 5 5 5 6 5 4 5 6 6 6 6 5 4 5 5 6 7 12 15 17 18 18 18 18 19 19 19 18 17 17 17 17 18 18 19 19 19 19 19 19 20 21 21 22 22 23 23 24 24 25 25 26 26 26 27 27
7 7 6 7 7 7 7 9 9 8 4 4 8 8 8 9 9 4 5 8 10 9 9 7 7 7 6 6 5 5 5 5 4 4 4 5 5 6 5 5 4 5 5 6 6 6 6 9 12 14 18 18 18 19 20 19 18 17 16 16 16 17 17 18 18 18 18 18 19 20 20 21 22 22 22 23 24 25 25 26 26 26 26 27 27
8 7 7 7 8 7 7 8 8 8 9 5 7 8 7 6 9 7 5 5 9 9 10 9 9 7 7 7 6 6 4 4 3 3 4 5 5 5 4 5 4 5 6 6 6 7 7 7 7 7 9 16 16 17 18 18 18 17 16 15 16 16 17 17 18 17 18 18 18 20 20 21 22 22 22 23 24 25 25 25 25 26 26 27 27
7 7 8 8 8 7 8 9 9 8 9 9 9 9 10 10 8 11 10 7 7 8 10 11 10 9 8 7 6 6 5 4 4 4 3 3 4 4 4 4 4 5 6 6 6 7 7 7 6 5 5 8 13 14 16 17 17 17 16 15 15 16 17 17 17 17 17 18 19 20 20 21 21 22 22 23 24 24 25 25 26 26 26 27 27
7 6 8 7 7 8 9 9 9 8 8 10 10 12 12 11 9 7 13 11 7 7 9 12 12 9 7 7 6 5 5 4 4 3 3 3 3 3 3 4 4 5 6 6 7 7 6 6 5 4 4 4 5 10 12 14 16 16 17 16 16 16 16 17 17 17 17 18 19 19 20 20 21 21 22 22 23 24 24 25 25 26 27 27 27
7 7 6 6 7 6 7 8 8 8 7 7 9 9 9 10 10 7 4 11 9 10 10 11 8 10 11 8 6 5 4 4 4 4 4 4 3 3 3 4 4 5 5 6 6 6 6 5 4 4 5 5 5 5 6 8 10 15 17 17 16 16 16 16 17 17 17 18 19 19 19 20 20 21 22 23 24 25 25 25 26 26 27 27 27
8 7 7 6 8 8 8 8 8 8 10 11 9 8 8 11 12 12 8 5 9 9 12 7 8 9 9 10 7 7 5 4 4 4 3 3 3 3 3 4 4 4 4 5 5 5 4 4 4 4 5 5 4 5 4 5 7 10 15 16 16 16 16 15 16 16 17 18 18 18 18 19 20 21 22 23 24 25 25 26 26 26 27 27 27
7 7 7 6 8 9 9 9 8 8 9 12 10 11 10 9 8 10 13 11 9 9 7 4 7 12 10 6 8 6 7 5 5 3 3 3 3 3 2 3 3 3 3 4 4 4 4 3 4 4 5 5 5 4 4 4 5 6 10 15 16 16 16 15 15 16 17 17 17 17 18 19 20 20 21 23 24 24 25 26 26 26 26 26 28
6 7 7 5 6 7 9 9 9 8 9 10 11 11 12 11 12 12 13 13 11 10 6 5 9 4 3 7 4 4 4 8 7 3 2 2 2 2 2 2 2 3 3 3 3 3 3 4 4 4 4 4 4 4 4 5 4 6 7 11 14 15 15 15 16 16 17 17 17 16 17 18 19 20 21 22 23 25 25 26 26 26 27 27 27
5 7 8 6 4 3 5 8 9 8 7 9 9 10 11 11 11 12 12 11 13 12 9 6 6 2 5 5 2 1 8 9 7 4 2 1 1 1 1 1 2 2 3 3 3 3 3 3 3 4 4 4 4 3 3 4 5 5 7 9 14 14 14 15 15 16 16 16 16 17 18 19 20 20 21 22 23 25 25 25 26 26 26 26 27
3 5 7 7 5 5 6 8 9 7 8 8 9 12 11 11 10 11 11 10 10 11 12 9 4 5 3 3 2 2 7 12 7 7 5 4 3 3 2 1 1 2 3 3 3 3 2 2 3 3 3 3 3 3 3 3 4 4 9 13 13 13 13 13 14 15 15 16 16 17 18 19 19 20 21 22 23 23 24 24 25 25 26 27 27
4 3 5 6 6 6 5 5 7 8 9 8 10 11 10 8 10 11 10 10 12 10 10 9 12 7 4 4 1 3 8 1 8 7 5 8 6 3 2 3 3 3 3 4 3 3 3 2 2 1 2 2 2 3 3 3 3 4 6 12 12 12 12 12 12 12 13 15 17 18 18 18 19 19 20 21 22 22 23 24 25 25 26 27 28
2 3 4 6 6 7 7 6 5 6 8 8 8 10 12 12 11 9 10 10 10 8 9 10 10 7 7 4 4 5 5 1 3 1 3 7 5 8 7 4 4 4 4 3 3 2 2 2 2 1 1 1 2 2 3 3 3 3 5 11 11 11 11 11 10 11 12 14 16 17 17 18 18 19 20 21 21 22 23 23 25 26 26 26 27
3 3 4 4 5 5 5 7 8 8 8 8 8 9 9 10 11 10 9 9 9 7 9 9 9 6 7 7 6 5 4 3 4 4 2 4 6 10 9 9 7 6 5 5 4 3 3 2 2 1 1 1 1 1 2 3 3 3 5 10 10 10 10 9 9 11 12 14 15 15 16 17 18 19 20 20 21 22 22 23 24 26 27 28 27
4 3 3 4 5 5 5 6 7 7 8 8 9 10 9 9 8 8 9 10 8 7 7 7 7 8 7 7 8 9 9 8 9 8 6 5 5 7 8 8 6 6 6 5 5 4 3 3 2 2 1 1 0 1 1 2 0 4 7 7 9 9 8 8 9 11 12 13 14 15 15 16 17 18 20 20 21 21 22 23 25 26 26 27 27
3 3 4 4 4 4 4 5 6 7 7 8 8 9 9 8 8 8 8 8 6 7 7 7 7 6 6 5 5 6 3 3 5 7 6 5 6 7 8 6 2 3 5 4 4 4 4 4 3 2 2 1 0 1 1 2 0 2 7 5 7 8 8 8 9 10 11 12 13 14 15 16 17 18 19 20 21 22 23 24 25 25 26 26 27
5 6 5 6 5 5 6 7 6 6 6 7 7 8 8 8 8 8 7 9 7 7 7 7 6 6 6 2 1 1 1 3 3 5 3 3 4 7 4 6 5 5 4 4 4 5 5 5 4 4 3 2 1 1 1 1 2 3 7 5 6 7 7 8 9 10 10 11 12 13 14 15 16 17 18 19 20 22 23 24 25 25 25 26 26
10 10 8 8 6 6 6 6 5 6 6 6 6 6 6 7 7 7 6 5 3 4 3 5 3 3 3 3 1 1 2 1 2 2 3 4 5 6 6 3 1 3 3 4 3 3 5 5 5 4 3 3 3 2 2 1 2 1 7 7 5 5 7 8 9 9 10 11 12 12 13 14 15 16 17 19 20 21 23 24 24 24 25 26 26
9 8 9 9 7 6 7 6 5 5 5 5 4 5 5 4 5 4 4 3 4 4 3 4 4 4 3 3 3 2 2 3 2 3 2 2 3 6 7 7 3 3 4 5 5 8 4 4 6 5 5 4 4 3 2 2 2 4 7 5 4 3 6 8 9 9 9 10 11 11 12 13 14 16 16 18 20 20 22 23 24 24 25 25 26
6 8 9 8 8 7 6 6 6 5 5 6 6 6 5 5 4 4 4 2 4 5 5 5 5 5 4 3 3 3 3 3 3 3 3 2 2 4 5 6 5 4 7 6 7 7 8 5 5 6 6 5 4 3 2 4 3 4 8 4 4 3 4 9 9 9 9 9 10 11 11 12 14 14 16 17 18 20 21 22 23 24 24 25 26
5 6 9 7 7 8 8 7 7 6 6 6 6 6 6 5 5 6 6 5 5 5 5 5 5 4 4 3 4 4 3 3 3 3 2 2 2 2 1 2 3 5 3 6 7 6 6 8 5 6 7 5 4 3 3 3 0 3 4 4 4 4 5 9 9 8 9 9 10 10 11 12 13 14 16 16 18 19 20 21 22 23 24 25 25
4 4 6 7 7 8 7 7 7 7 7 7 6 6 7 5 6 6 5 6 6 5 5 5 4 3 4 4 4 4 3 2 3 3 2 2 2 2 2 1 2 4 5 5 4 3 4 6 5 4 6 6 4 3 2 3 1 4 4 5 5 4 8 10 8 7 8 9 10 11 12 12 13 14 15 16 17 18 19 21 21 22 23 24 25
6 6 7 6 7 8 8 8 7 7 7 7 7 7 6 7 7 6 5 6 6 6 5 5 4 4 5 4 3 3 3 3 3 2 2 2 2 2 1 1 2 3 4 4 3 1 4 3 5 3 5 5 3 3 3 4 2 3 5 4 5 6 10 8 6 6 8 9 11 11 11 12 13 13 14 16 17 18 19 20 21 22 22 23 24
7 7 7 8 9 10 8 8 8 8 8 7 7 7 7 6 6 6 5 6 7 6 6 4 4 4 4 4 3 3 3 3 3 2 2 1 1 2 2 2 2 3 3 4 5 5 3 2 3 4 4 3 3 4 4 3 3 7 4 5 5 7 6 4 5 6 7 10 11 11 11 12 12 13 14 16 17 18 19 20 21 21 21 22 23
7 8 8 8 9 9 10 9 9 9 9 8 7 7 6 7 6 6 7 6 7 5 6 6 4 4 4 4 4 3 3 4 3 3 2 2 2 1 1 2 3 3 4 4 5 6 2 3 2 3 4 3 4 5 4 4 4 3 4 4 5 5 5 5 5 6 7 9 11 11 11 12 11 12 14 16 17 18 18 19 20 20 20 21 21
7 8 8 7 8 9 9 9 9 9 8 8 8 7 7 8 7 4 6 6 7 6 6 6 5 3 3 4 4 4 3 3 3 3 3 3 3 3 3 3 3 3 3 3 5 4 6 3 3 3 3 4 4 5 4 4 5 4 5 4 4 4 5 5 6 6 7 8 10 11 11 11 11 12 14 16 17 17 18 18 19 19 19 20 20
7 7 7 8 9 9 8 9 9 9 9 8 7 7 7 8 8 6 5 6 7 8 7 7 6 5 5 4 4 4 2 3 3 2 2 2 2 3 4 3 4 3 3 3 3 5 6 6 1 2 4 4 5 4 4 4 4 5 5 5 4 4 4 6 7 6 7 8 10 11 12 11 10 11 13 15 16 17 17 17 18 18 19 19 20
8 6 7 8 8 9 8 9 9 8 9 8 8 7 8 8 8 8 7 6 6 6 7 7 7 6 6 5 4 4 4 3 3 2 2 2 3 3 4 3 4 4 3 3 4 5 5 6 5 4 4 4 5 4 4 4 5 5 5 5 5 6 7 7 8 7 7 9 10 12 12 11 10 10 12 15 16 16 17 17 17 18 19 19 19
7 6 5 6 8 8 8 9 9 9 9 9 8 8 7 7 8 8 8 7 6 6 6 6 7 6 6 4 5 5 5 3 3 3 3 4 3 3 4 4 4 3 2 3 4 4 5 7 7 5 4 5 5 5 5 5 5 5 6 6 6 7 7 8 7 7 10 13 14 14 13 10 9 9 11 15 17 16 16 16 17 17 18 18 18
8 7 7 7 8 10 9 9 9 9 9 9 9 9 8 8 7 7 7 7 7 6 6 6 6 5 5 5 5 5 5 5 4 4 4 5 4 5 5 4 4 3 3 4 4 5 6 8 7 7 5 5 5 6 5 4 5 6 6 6 7 7 8 7 7 6 6 6 6 6 8 8 7 9 11 13 16 16 16 16 16 16 16 17 17
10 9 7 8 7 9 10 9 9 9 9 8 8 8 9 8 8 8 8 7 6 5 5 5 5 5 4 4 5 5 5 5 4 5 5 5 4 5 5 5 4 4 4 5 5 6 7 7 8 8 7 6 5 7 4 4 5 6 7 7 8 6 7 7 7 7 6 7 10 11 9 6 8 10 11 12 16 16 16 15 16 16 15 16 17
9 9 10 9 8 8 8 8 8 8 8 8 8 8 8 8 8 7 7 7 7 6 5 5 5 4 4 4 4 4 5 4 5 4 4 5 4 5 5 4 4 5 6 5 5 6 6 7 8 7 6 6 5 6 4 4 6 8 7 7 8 7 6 7 8 8 7 7 7 5 7 8 10 11 13 14 16 16 15 14 14 14 14 15 17
7 7 8 7 8 8 7 7 7 6 7 8 7 8 9 9 8 8 8 7 7 6 6 5 4 4 4 4 4 5 5 6 6 4 4 4 4 4 5 5 6 6 5 5 5 5 6 6 8 7 6 6 7 6 6 7 8 8 5 5 6 7 7 9 9 9 8 7 6 5 5 6 6 7 6 6 7 9 11 13 11 12 12 15 18
7 8 6 6 8 9 10 9 7 5 4 4 8 11 9 9 9 7 7 8 7 7 6 6 4 4 4 4 4 7 7 8 8 10 11 11 11 8 6 6 5 5 5 6 6 6 6 7 9 6 6 7 8 8 8 9 7 6 7 7 8 8 7 10 10 9 7 6 5 6 5 5 6 7 7 7 7 7 6 6 6 10 14 17 17
7 8 8 8 8 8 8 8 10 9 8 8 16 16 16 15 11 9 8 7 6 6 5 6 6 5 5 5 5 6 7 8 9 13 13 15 15 15 15 13 9 7 6 6 7 6 7 8 7 6 7 9 11 8 8 8 7 8 7 7 8 7 7 8 9 3 5 5 4 6 8 5 7 7 7 7 7 7 7 7 10 15 16 15 16
7 6 9 10 10 8 7 7 7 7 6 10 17 16 16 15 9 6 5 6 6 6 6 6 5 5 5 5 5 4 6 8 7 7 11 15 16 16 17 17 17 18 16 11 7 6 9 9 8 8 7 9 10 7 8 7 8 7 8 8 9 9 8 8 8 7 1 2 4 6 10 5 6 7 8 7 7 7 7 9 12 16 16 14 14
8 9 8 8 8 5 5 5 6 5 3 10 13 14 13 13 13 9 5 6 6 6 6 6 6 5 5 5 5 5 5 10 8 7 7 8 13 17 18 18 19 20 21 22 20 13 7 7 8 9 11 10 10 10 9 8 7 9 8 8 10 9 9 9 9 7 6 0 4 7 10 7 5 8 9 7 6 6 6 9 12 14 15 12 13
6 7 7 7 5 7 6 7 6 6 7 12 16 17 17 17 17 12 6 7 6 5 7 7 6 6 7 6 6 6 6 7 7 8 8 9 8 9 10 12 13 16 20 23 22 24 20 12 9 12 15 10 12 10 7 8 9 9 9 10 9 9 9 10 10 10 7 5 6 6 9 8 4 5 7 7 6 6 6 8 12 14 15 11 11
9 9 9 8 7 5 4 5 5 6 6 15 18 18 18 18 19 13 5 5 5 4 5 5 6 7 8 7 8 7 6 7 7 8 8 9 8 7 7 9 11 13 12 13 14 14 14 14 15 16 15 11 13 12 10 9 11 10 10 10 8 8 8 8 9 9 9 8 9 6 7 8 3 7 9 6 6 6 6 8 12 13 14 11 11
4 4 4 3 5 6 6 7 6 5 5 15 17 19 19 18 18 7 5 5 5 4 4 6 7 7 7 8 7 8 8 8 10 16 14 9 8 10 10 11 10 11 12 13 14 14 14 14 14 14 12 12 13 12 10 9 8 8 7 8 9 6 5 8 10 6 8 7 8 8 7 10 6 7 10 7 6 8 6 7 11 13 12 9 12
6 7 7 5 4 6 7 7 7 4 3 11 15 15 16 16 12 5 6 5 4 5 5 6 6 6 6 7 8 8 9 10 12 16 17 15 10 12 12 14 12 9 12 10 16 22 23 24 25 24 23 20 19 20 20 21 14 9 9 11 14 9 8 11 10 7 8 5 7 8 6 9 7 6 9 8 7 9 9 8 6 7 9 8 12
8 7 6 6 6 6 7 6 5 5 4 7 13 14 14 16 10 6 6 6 5 6 6 6 4 5 8 13 12 10 10 11 11 15 16 14 11 12 11 14 16 13 12 7 6 12 22 25 27 27 28 28 28 28 26 24 23 18 13 15 11 8 11 10 10 7 6 5 6 6 4 8 6 6 7 8 9 8 7 6 4 3 5 9 11
6 5 6 6 6 5 7 9 10 9 7 7 13 13 15 16 10 5 5 5 5 6 5 5 5 6 8 12 18 15 13 12 14 16 17 15 11 12 9 10 12 15 13 4 8 7 7 8 12 14 16 20 20 18 20 27 27 23 18 12 7 12 11 11 11 9 10 9 6 9 5 5 4 5 5 7 8 5 3 3 2 3 6 6 7
Wind_Direction
179 171 168 169 161 157 155 151 152 147 143 140 135 134 128 123 125 123 114 110 103 97 96 86 82 77 78 76 73 71 70 70 69 67 72 73 57 31 28 59 61 65 60 63 62 64 64 63 60 58 56 55 57 58 57 55 54 54 53 51 49 48 46 45 44 42 39 37 34 32 29 28 25 25 22 20 19 17 15 13 14 12 11 8 6
187 175 164 166 164 156 167 160 154 152 148 143 137 132 128 128 125 120 119 114 105 104 102 92 79 76 77 79 73 74 75 73 71 74 77 78 71 53 34 41 61 68 67 64 61 59 60 61 60 59 59 59 59 59 58 57 58 57 54 51 50 48 46 45 43 41 38 36 33 31 28 27 24 23 21 20 17 17 15 13 10 9 8 6 5
182 178 174 166 161 161 171 164 155 148 143 133 121 111 120 127 128 127 124 115 106 102 100 97 89 81 79 77 76 80 77 72 72 74 79 79 84 77 55 46 46 58 62 61 63 59 60 61 61 60 60 61 62 60 57 55 53 52 52 50 48 46 44 43 42 40 38 36 33 30 28 25 24 23 22 18 17 15 13 11 9 6 5 3 3
176 170 171 164 167 165 161 168 141 130 134 136 132 133 124 119 113 110 112 112 108 100 96 98 92 86 82 80 78 78 74 75 75 72 71 75 80 78 76 64 52 49 52 64 66 64 63 60 61 61 61 58 58 58 57 54 54 53 50 48 46 44 43 42 40 38 37 35 33 31 28 26 24 23 20 18 16 14 11 9 7 5 4 3 1
173 171 167 170 165 160 157 164 149 144 138 130 116 114 111 111 110 111 109 108 102 97 95 97 96 91 85 80 78 71 69 75 76 72 72 72 71 72 73 70 70 58 50 51 59 62 61 62 60 58 57 54 53 54 56 55 54 52 51 48 46 44 42 42 41 39 37 35 33 29 27 25 23 21 19 16 14 11 9 7 5 4 2 0 359
178 174 174 163 163 165 159 150 147 132 126 133 130 128 119 116 118 113 111 111 106 100 103 101 98 93 85 78 74 72 74 73 68 66 67 67 64 62 61 62 63 67 62 48 44 52 57 60 60 57 56 54 53 53 54 54 53 53 51 47 46 43 41 40 40 39 37 34 32 30 26 24 22 20 17 15 12 11 8 6 4 3 1 359 357
176 173 173 166 160 159 167 160 159 146 136 142 135 126 128 130 132 121 117 108 105 101 98 96 99 93 87 83 79 79 78 76 69 66 66 66 65 62 59 60 60 59 66 72 51 44 50 52 54 57 56 55 52 52 54 54 53 51 51 48 45 42 41 39 39 38 36 34 30 28 25 23 21 18 16 14 12 10 7 6 4 1 359 358 356
172 175 167 169 152 138 115 120 140 138 143 138 137 134 134 131 136 137 127 123 114 107 99 95 95 90 85 82 81 79 80 74 69 70 65 70 70 68 66 63 60 58 52 68 69 52 47 50 49 48 52 55 53 53 53 52 51 50 48 47 44 41 40 39 38 36 34 31 28 26 24 21 19 18 16 14 12 9 7 5 3 360 358 357 355
171 167 159 150 142 135 145 132 132 148 150 147 146 140 139 124 109 75 124 126 111 111 101 95 94 89 84 81 78 81 79 75 77 78 73 77 81 82 80 75 66 55 65 64 67 67 51 48 48 43 39 49 54 54 51 47 45 46 45 44 44 42 39 39 37 34 32 29 27 25 23 21 19 17 14 12 10 8 6 4 2 359 358 356 355
148 146 141 140 138 138 140 146 146 141 153 131 128 121 127 133 126 89 111 125 120 122 113 103 96 96 86 79 76 74 76 78 81 88 89 90 87 86 85 83 73 67 65 65 63 59 55 47 44 45 37 37 43 45 46 45 43 45 45 44 45 44 40 39 37 33 30 27 25 24 22 19 18 15 13 11 9 8 5 2 0 358 357 355 354
154 144 137 139 139 144 139 148 147 149 144 147 127 117 117 124 126 111 78 101 122 121 119 112 102 95 89 79 73 73 73 76 87 87 91 87 87 87 87 84 79 69 67 65 63 57 51 45 39 40 37 32 37 41 43 44 44 43 42 42 43 43 41 37 36 31 28 25 22 22 20 18 16 13 12 9 7 6 3 1 358 357 356 354 351
150 154 145 157 149 152 147 152 154 151 150 152 145 139 132 125 124 123 114 92 93 114 119 115 104 97 93 83 76 75 75 81 82 86 91 88 94 94 92 97 87 76 68 66 60 56 52 45 41 38 35 35 36 36 39 37 36 41 37 37 39 39 39 35 32 29 25 23 21 20 19 16 14 12 11 8 5 3 1 359 357 356 354 352 350
145 137 152 152 150 146 146 158 159 153 157 162 148 147 143 138 128 129 131 126 123 131 127 124 122 109 97 95 88 78 81 80 85 81 82 89 90 95 98 99 91 79 68 65 60 57 54 47 44 38 30 23 31 33 36 37 32 34 35 34 34 35 33 31 27 26 22 20 20 17 16 14 12 11 10 6 3 1 359 357 355 354 352 350 347
152 143 144 143 136 145 152 154 159 152 157 143 126 120 123 130 130 114 124 135 141 152 148 134 136 144 139 131 113 106 95 95 86 77 76 77 77 83 92 88 87 83 81 74 67 64 59 54 45 38 31 28 25 27 30 31 27 21 26 26 28 27 26 25 24 22 20 19 18 15 14 12 11 9 8 4 0 359 357 356 355 353 351 348 347
155 155 146 153 151 150 155 159 155 147 142 148 140 134 146 147 150 142 138 135 139 159 161 174 148 148 135 132 151 146 148 126 101 76 70 68 81 79 75 80 75 79 84 86 83 73 66 56 49 39 32 28 29 27 38 39 9 7 22 21 19 21 19 19 19 18 18 18 16 13 11 11 9 8 6 2 359 358 356 354 353 352 349 347 346
165 153 159 158 163 159 152 157 163 159 146 146 153 155 159 161 152 144 141 143 163 175 186 217 170 152 164 201 169 170 153 178 149 98 75 60 64 87 82 90 90 93 98 93 91 82 77 68 53 46 34 29 27 22 23 12 352 10 24 16 16 13 11 12 12 14 14 14 13 9 9 9 8 7 3 360 359 356 354 353 352 349 347 346 345
173 161 152 165 178 156 158 153 160 164 154 151 158 165 170 168 159 151 162 157 162 172 191 212 200 205 179 134 148 206 206 143 141 131 157 143 68 68 82 101 115 104 103 103 106 104 95 76 62 49 38 33 27 21 18 9 6 12 18 13 10 11 8 7 8 8 10 9 8 5 7 8 6 4 360 357 357 355 353 352 351 347 347 344 344
185 168 150 158 180 167 144 152 160 161 160 159 156 161 171 174 170 161 166 170 161 166 179 204 236 227 285 316 339 267 147 156 167 163 130 71 122 117 113 104 115 123 121 128 133 120 97 83 66 56 42 31 25 16 19 25 12 21 17 4 7 10 8 6 5 4 6 4 4 4 5 5 3 0 358 355 354 353 351 350 348 346 346 345 346
221 180 146 153 165 168 159 163 165 159 161 159 167 172 174 175 168 169 171 165 167 171 177 179 187 248 248 275 299 303 140 146 195 120 166 170 193 170 167 181 170 152 149 141 139 136 117 106 88 70 51 33 23 18 17 19 14 10 15 1 4 5 8 6 4 0 1 0 3 3 3 2 0 357 355 354 352 351 349 348 346 346 345 346 346
198 183 134 147 162 164 160 157 158 166 167 179 177 177 170 170 173 174 171 176 176 178 171 173 183 189 184 202 184 146 156 312 154 172 154 160 177 171 176 193 200 196 174 157 152 139 136 126 112 91 74 49 25 19 11 7 7 10 16 358 357 4 5 5 2 358 358 360 3 2 1 359 356 354 352 350 348 348 347 346 346 345 346 347 346
185 161 156 156 161 163 160 165 168 159 180 183 176 175 174 169 175 176 177 178 185 183 171 177 196 181 163 168 156 149 158 48 157 135 153 155 160 177 176 174 214 196 188 173 157 150 149 136 116 133 101 57 36 18 9 5 9 7 13 352 353 359 0 360 358 356 1 3 2 0 358 356 353 351 348 347 346 346 346 345 345 345 345 345 343
164 173 157 162 155 150 162 175 176 176 182 181 170 169 171 174 180 181 178 179 192 188 183 178 193 167 186 157 155 144 146 161 191 180 135 188 169 183 176 173 186 184 179 182 176 171 172 158 170 179 187 68 26 17 10 22 15 359 351 343 349 351 353 353 354 360 4 5 0 357 356 354 351 348 346 344 344 344 345 345 345 346 343 343 343
158 171 157 162 160 159 177 184 182 179 180 171 174 176 176 176 174 177 183 188 191 185 193 186 183 170 182 176 172 174 176 184 185 186 183 167 152 164 167 185 186 160 187 176 173 184 181 190 201 193 194 194 16 340 14 15 329 3 325 327 339 342 346 349 358 3 4 2 358 355 354 351 347 345 343 343 343 343 344 345 345 344 342 340 339
156 156 165 171 158 162 178 182 184 179 181 177 173 177 173 173 178 183 187 191 193 188 195 186 186 174 179 186 186 190 198 200 177 179 186 182 170 159 165 160 153 162 126 161 183 190 197 204 208 199 201 201 223 331 301 278 185 7 331 315 323 335 344 351 1 3 2 359 355 353 352 347 343 341 341 340 341 344 346 346 343 340 338 339 337
178 172 181 174 161 161 178 186 184 184 179 175 174 169 169 173 178 181 183 187 192 193 188 187 177 179 183 172 63 109 47 19 149 168 165 146 156 142 139 163 191 172 155 172 195 192 205 210 195 203 195 209 220 266 299 286 317 3 326 285 283 327 340 351 357 0 360 356 353 352 350 344 339 337 337 339 343 346 345 343 340 338 338 336 336
173 183 170 167 167 172 182 186 179 173 173 171 162 161 163 176 174 183 178 180 174 185 176 137 149 62 77 130 108 70 53 49 84 122 135 151 154 149 141 138 33 188 138 195 193 195 203 201 199 195 202 205 212 237 256 296 272 308 310 289 262 310 339 350 354 359 358 352 349 349 346 339 334 333 335 342 346 345 342 339 337 336 336 334 335
174 167 150 160 159 164 175 173 160 160 161 158 150 158 169 165 165 151 148 148 145 162 130 127 112 110 109 110 115 87 72 65 79 84 99 138 141 145 149 156 182 213 213 203 204 223 205 178 186 198 203 205 213 217 245 282 254 272 294 276 274 283 336 345 349 355 353 347 346 344 338 331 327 330 339 346 345 342 338 336 335 335 334 333 335
153 144 154 151 152 159 158 155 149 157 162 157 156 163 162 163 147 143 126 88 132 120 119 112 107 109 110 109 115 96 77 68 59 69 65 50 101 138 156 167 175 205 202 211 209 224 190 175 178 199 200 202 206 215 235 255 240 306 262 273 288 293 327 338 343 345 343 340 341 337 327 321 325 336 345 345 342 338 335 334 334 332 331 333 334
153 152 148 149 149 153 157 152 154 156 155 156 159 154 152 151 144 134 132 136 131 121 114 116 110 109 107 103 104 104 97 96 97 97 90 92 100 116 128 215 251 258 221 227 216 200 177 193 192 185 191 205 199 214 218 254 316 305 284 278 285 283 321 328 330 333 333 335 336 325 315 317 330 341 344 341 337 334 332 332 330 330 331 333 334
150 149 142 140 146 155 151 149 149 155 155 154 151 145 147 140 130 129 130 137 124 112 101 105 110 107 99 88 92 109 107 111 98 87 102 107 125 142 166 205 258 249 264 264 271 186 159 180 213 162 179 194 209 217 234 256 122 290 277 275 279 290 317 314 310 319 325 327 323 312 310 322 335 340 339 335 332 332 331 329 328 328 331 333 333
158 162 157 146 151 156 151 150 150 152 150 148 147 148 149 135 135 126 132 138 126 115 107 109 105 113 106 109 108 108 111 102 106 108 110 126 137 149 150 200 222 252 251 261 262 214 144 197 181 135 161 179 191 240 233 235 206 280 272 274 274 306 305 289 281 302 316 314 307 305 314 327 334 336 333 329 329 331 329 327 326 328 331 332 331
167 169 171 164 163 158 157 152 151 151 150 148 152 147 144 136 135 131 133 128 118 119 121 108 105 103 125 133 139 136 131 121 124 135 139 134 149 165 171 202 217 236 240 244 251 259 149 189 138 148 159 181 213 236 250 238 208 221 269 274 289 298 285 291 288 283 296 298 301 310 320 326 329 330 327 326 328 328 326 324 326 329 331 330 329
159 173 179 170 163 160 154 155 156 154 152 149 148 147 139 132 123 123 129 128 123 119 120 113 111 128 148 144 142 135 142 150 152 150 154 163 173 179 175 214 226 218 230 237 244 260 197 143 178 170 155 193 248 209 232 251 255 255 256 273 285 292 294 294 298 280 267 286 301 310 314 317 321 324 324 326 326 324 322 323 326 328 328 328 328
164 170 173 168 166 158 154 153 152 150 147 144 145 145 138 130 124 122 130 127 125 126 127 138 148 147 144 152 151 150 159 157 147 162 168 174 189 187 195 215 231 225 237 238 250 251 262 166 175 174 186 193 246 217 218 253 271 279 279 279 282 281 288 292 286 276 262 277 295 299 302 307 313 319 323 324 321 320 320 322 324 325 326 326 325
173 173 164 164 167 160 155 154 150 147 147 145 149 146 140 138 135 137 136 142 144 146 152 154 155 151 156 162 162 153 153 152 155 171 167 185 199 216 213 218 231 234 225 243 251 256 263 267 231 219 228 207 230 232 232 249 266 271 274 273 272 279 272 272 271 270 265 268 277 285 290 296 305 315 319 317 315 315 317 319 322 323 323 324 324
168 162 158 162 160 164 157 152 150 146 148 148 149 149 142 141 139 142 146 151 151 151 156 155 154 162 168 160 163 159 154 161 171 180 185 200 211 225 224 229 234 233 232 224 246 259 271 271 255 232 238 240 241 230 238 252 259 262 264 270 266 261 259 253 257 262 262 259 261 271 278 284 295 308 311 309 309 312 313 317 319 321 321 321 322
165 155 148 154 161 165 165 160 155 156 158 155 149 145 145 143 143 143 149 153 157 160 157 154 157 161 167 165 151 154 160 166 178 195 196 202 217 227 232 228 230 230 216 233 238 249 256 258 265 250 233 248 256 258 252 263 269 265 257 255 257 257 257 255 254 259 264 259 255 256 265 270 282 293 298 301 304 306 309 313 316 318 318 320 319
162 167 160 164 170 172 167 164 163 159 154 154 154 154 150 146 139 141 149 158 160 154 151 151 161 167 162 155 153 156 169 184 195 191 202 208 212 228 234 234 230 228 231 235 238 240 247 256 261 268 248 243 256 250 233 237 267 278 274 261 253 246 247 255 250 249 247 244 239 237 241 251 261 281 287 292 293 297 302 308 312 314 316 317 314
167 167 168 162 171 172 171 165 161 155 156 157 155 153 148 147 147 150 153 152 147 143 146 155 160 161 157 154 156 167 182 198 199 203 204 210 217 230 230 235 232 227 237 236 233 236 243 254 259 255 261 255 249 265 254 239 256 260 268 278 271 249 236 244 260 255 244 245 243 233 234 250 275 281 275 273 281 286 292 301 307 309 312 312 311
168 167 170 171 169 168 160 158 157 155 154 156 156 150 149 149 148 149 152 152 152 153 155 159 155 159 160 166 173 185 198 206 211 218 204 218 211 228 230 221 226 226 238 241 236 236 243 250 254 257 254 260 257 251 249 241 258 255 235 240 262 271 266 258 257 260 253 253 253 240 227 236 257 265 263 256 259 268 279 291 294 300 302 305 310
182 147 151 151 151 151 153 157 149 152 160 163 160 157 151 150 150 153 155 158 159 156 156 155 156 155 167 180 194 201 208 218 222 223 216 206 216 231 225 208 221 228 234 239 239 238 248 252 258 253 252 254 252 251 245 236 235 249 251 237 257 265 272 271 261 248 242 249 258 247 242 239 256 271 269 256 251 258 271 277 285 291 298 306 310
167 172 164 146 163 167 164 159 150 146 160 152 166 158 150 151 156 155 159 164 164 159 155 150 150 163 182 188 204 207 209 218 228 235 237 235 232 235 239 219 207 216 222 226 235 236 243 250 251 247 248 252 251 239 243 243 245 250 250 243 255 265 265 266 267 246 227 237 255 261 255 243 244 262 264 251 249 247 256 273 290 303 304 306 308
165 165 170 166 167 171 166 156 161 171 174 175 171 170 166 159 158 162 164 159 148 144 148 154 161 175 188 204 214 211 217 227 233 237 239 241 240 238 238 239 230 209 207 221 231 226 232 246 251 238 242 254 254 244 241 249 240 239 243 245 253 260 259 266 272 253 185 187 249 276 272 242 219 246 261 253 244 245 249 257 284 301 305 305 309
169 163 180 182 176 173 167 165 166 163 159 172 176 174 172 169 159 127 135 143 154 163 167 170 167 169 188 199 210 196 209 215 215 226 238 244 245 245 242 240 239 237 232 226 224 225 229 236 246 235 238 244 254 240 240 234 240 238 239 240 244 245 252 255 262 267 203 140 290 288 283 262 216 242 261 252 240 240 245 255 274 294 302 304 308
177 178 182 173 182 158 158 161 165 165 90 162 172 169 169 166 163 153 160 154 160 168 171 167 169 177 186 195 205 210 208 216 221 226 234 246 245 246 248 248 247 243 240 238 235 234 241 242 241 250 236 240 252 246 231 230 234 246 243 243 240 240 245 255 261 272 263 294 308 286 284 278 227 247 258 254 243 247 247 251 261 287 295 297 304
161 174 177 174 161 173 170 164 172 157 152 169 176 175 173 172 171 169 161 162 167 167 167 171 172 190 200 201 211 221 202 199 218 221 228 240 247 246 243 243 245 245 242 240 238 238 238 241 242 246 250 227 241 249 238 223 223 232 236 240 239 239 240 249 268 273 275 273 276 295 286 281 229 239 261 270 254 251 248 261 265 277 285 286 301
174 180 181 181 180 156 148 159 157 169 176 180 180 177 176 176 176 173 150 151 157 163 176 175 188 198 205 209 218 228 213 199 206 206 218 230 233 236 238 241 245 248 246 238 230 230 231 232 237 241 251 241 241 247 243 233 235 237 234 241 240 248 259 276 276 265 269 259 254 248 261 285 280 279 274 279 275 262 264 269 261 263 270 271 300
109 104 105 131 157 158 163 169 167 174 171 190 184 179 181 182 175 155 147 153 167 171 186 197 205 213 210 213 218 227 224 217 216 216 219 223 232 242 242 247 247 249 248 240 236 232 228 228 231 237 241 241 239 241 237 234 238 241 247 254 258 234 237 257 260 256 254 253 231 218 253 276 280 282 284 289 280 272 268 272 266 253 253 260 310
144 164 165 142 144 150 161 164 170 170 143 194 191 184 181 177 170 158 158 170 179 188 206 211 212 204 207 209 220 227 235 237 226 222 227 224 238 243 247 253 254 249 251 238 236 243 244 242 244 246 248 248 245 245 246 243 237 239 250 253 247 230 236 252 260 251 249 237 205 217 245 278 289 289 291 291 289 283 276 266 257 238 233 251 293
162 161 145 132 148 151 154 158 156 154 159 187 189 184 180 181 174 160 171 179 189 200 216 214 211 223 224 224 223 231 235 243 233 232 235 229 238 244 245 253 260 256 251 223 224 240 244 249 253 255 257 259 258 258 257 252 249 246 238 238 237 229 233 240 249 247 266 224 206 194 235 256 295 290 292 297 291 265 244 245 233 215 233 265 282
149 132 148 142 149 155 166 167 162 159 167 180 186 186 185 188 178 175 183 190 202 219 224 235 217 220 228 229 233 230 236 244 243 242 239 231 235 242 233 244 251 255 253 163 231 237 239 238 248 253 257 259 260 260 260 259 258 253 246 239 208 229 225 238 245 258 267 257 198 182 210 264 277 291 317 316 302 290 235 254 188 286 286 285 288